Location: Feydey
(46.3431°N, 7.0106°E)
Time: 09:29:15
(UTC+00:00)

Meteor 2-10 Rocket - Pass Details

Date: 20 June 2021
Orbit: 734 x 885 km, 81.2° (Epoch: 04 August)

Event Time Altitude Azimuth Distance (km) Brightness Sun altitude
Rises 21:32:17 0° 350° (N) 3,215 8.2 -15.0°
Reaches altitude 10° 21:34:40 10° 352° (N) 2,271 7.1 -15.2°
Maximum altitude 21:39:45 77° 78° (ENE) 762 3.4 -15.6°
Enters shadow 21:42:35 26° 161° (SSE) 1,420 4.3 -15.8°
